[Iaude] MPEC J247: 2024 JZ8 [a=1.32,e=0.27,i=1.2,H=27.3]

mpec at cfa.harvard.edu mpec at cfa.harvard.edu
Fri May 10 07:59:56 EDT 2024


M.P.E.C. 2024-J247                                 Issued 2024 May 10, 11:58 UT

     The Minor Planet Electronic Circulars contain information on unusual
         minor planets, routine data on comets and natural satellites,
         and occasional editorial announcements.  They are published
    on behalf of Division F of the International Astronomical Union by the
          Minor Planet Center, Smithsonian Astrophysical Observatory,
                          Cambridge, MA 02138, U.S.A.
			  
             Prepared using the Tamkin Foundation Computer Network

                              MPC at CFA.HARVARD.EDU
            URL https://www.minorplanetcenter.net/    ISSN 1523-6714

                                    2024 JZ8                                    


Observations:
     K24J08Z* C2024 05 07.42522515 18 16.403-32 14 32.00         20.70wXEJ247F52
     K24J08Z  C2024 05 07.43696415 18 21.799-32 13 34.10         20.61wXEJ247F52
     K24J08Z  C2024 05 07.44869715 18 27.120-32 12 35.67         20.59wXEJ247F52
     K24J08Z  C2024 05 07.46045515 18 32.476-32 11 36.30         20.56wXEJ247F52
     K24J08Z  C2024 05 07.54766315 19 12.614-32 03 56.70         20.69GVEJ247F52
     K24J08Z  C2024 05 07.54831415 19 12.915-32 03 53.25         20.52GVEJ247F52
     K24J08Z KC2024 05 07.64336615 20 09.581-31 51 38.59         20.8 GVEJ247474
     K24J08Z KC2024 05 07.64536115 20 10.543-31 51 28.33         20.7 GVEJ247474
     K24J08Z KC2024 05 07.64716715 20 11.438-31 51 18.94         20.6 GVEJ247474
     K24J08Z KC2024 05 07.64906715 20 12.355-31 51 09.11         19.4 GVEJ247474
     K24J08Z KC2024 05 08.31191515 26 11.220-31 05 08.60         20.83GVEJ247I52
     K24J08Z KC2024 05 08.31346815 26 11.780-31 05 02.00               VEJ247I52
     K24J08Z KC2024 05 08.33626815 26 20.510-31 03 20.60               VEJ247I52
     K24J08Z KC2024 05 08.33781715 26 21.110-31 03 12.60               VEJ247I52
     K24J08Z KC2024 05 10.39177 15 40 11.25 -28 49 31.0          21.4 RVEJ247691
     K24J08Z KC2024 05 10.40323 15 40 14.16 -28 48 49.2          21.2 RVEJ247691

Observer details:
474 Mount John Observatory, Lake Tekapo.  Observers A. C. Gilmore, P. M.
    Kilmartin.  Measurer P. M. Kilmartin.  1.0-m f/7.7 Reflector + CCD.
691 Steward Observatory, Kitt Peak-Spacewatch.  Observer C. Lejoly.  0.9-m f/3
    reflector + CCD.
F52 Pan-STARRS 2, Haleakala.  Observers J. Herman, T. Lowe, P. Minguez, A.
    Schultz, I. Smith.  Measurers K. Chambers, T. de Boer, J. Fairlamb, H.
    Gao, M. Huber, C.-C. Lin, E. Magnier, Y. Ramanjooloo, R. Wainscoat, R.
    Weryk.  1.8-m Ritchey-Chretien + CCD.
I52 Steward Observatory, Mt. Lemmon Station.  Observer H. Groeller.  Measurers
    T. Beuden, V. F. Carvajal, D. Fay, J. B. Fazekas, D. C. Fuls, A. R. Gibbs,
    A. D. Grauer, H. Groeller, J. K. Hogan, R. A. Kowalski, S. M. Larson, G.
    J. Leonard, D. Rankin, R. L. Seaman, F. C. Shelly, K. W. Wierzchos.  1.0-m
    prime focus + CCD.

Orbital elements:
2024 JZ8                                                 Earth MOID = 0.0114 AU
Epoch 2024 Mar. 31.0 TT = JDT 2460400.5                 Veres                   
M   3.48806              (2000.0)            P               Q                  
n   0.64731466     Peri.  291.85969     -0.99980104     -0.00539678             
a   1.3235055      Node   247.83534     +0.01246934     -0.92051238             
e   0.2687982      Incl.    1.18813     -0.01556910     -0.39067611             
P   1.52           H   27.36          G   0.15           U   7                  
Residuals in seconds of arc
240507 F52  0.3-  0.2-    240507 474  0.0   0.3+    240508 I52  0.3-  0.4-
240507 F52  0.0   0.2-    240507 474  0.1-  0.0     240508 I52  0.2-  0.6+
240507 F52  0.3-  0.3-    240507 474  0.2+  0.0     240510 691  0.2+  0.0
240507 F52  0.2-  0.2-    240507 474  0.1+  0.2-    240510 691  0.0   0.1-
240507 F52  0.0   0.0     240508 I52  0.2+  0.2+
240507 F52  0.1-  0.1-    240508 I52  0.3-  0.1-

Ephemeris:
2024 JZ8                 a,e,i = 1.32, 0.27, 1                   q = 0.9677
Date    TT    R. A. (2000) Decl.     Delta      r    Elong.  Phase     V
2024 04 10    05 28 38.5 +06 55 43   0.05570 0.9777    62.8   114.3    25.5
...
2024 04 25    07 37 29.4 -22 07 14   0.01694 1.0053    87.5    91.6    21.8
...
2024 05 03    14 01 52.8 -40 15 21   0.02024 1.0263   154.0    25.5    20.1
...
2024 05 09    15 31 26.3 -30 12 41   0.03585 1.0443   165.7    13.8    21.0
2024 05 10    15 38 00.2 -29 09 14   0.03874 1.0475   166.6    12.9    21.2
2024 05 11    15 43 31.1 -28 13 15   0.04169 1.0507   167.4    12.1    21.3
...
2024 05 17    16 03 41.0 -24 23 11   0.06028 1.0710   171.8     7.8    22.0
...
2024 05 25    16 15 17.8 -21 44 16   0.08731 1.1001   178.1     1.8    22.5
...
2024 06 09    16 24 07.8 -19 38 12   0.1465  1.1593   169.0     9.6    24.1

M. P. C. Staff               (C) Copyright 2024 MPC           M.P.E.C. 2024-J247





More information about the Iaude mailing list